GFSSW_925_temp_138.txt.gz
Temp
11 12 11 11 12 12 13 12 12 13 13 14 14 15 15 16 15 14 15 17 17 18 18 18 19 19 20 22 21 22 23 23 24 24 25 23 24 23 21 23 21 21 23 20 20
11 12 11 11 11 12 12 13 12 13 13 13 14 15 15 14 15 14 15 16 16 17 17 19 20 20 22 21 21 23 23 24 25 26 25 24 23 24 24 23 23 22 20 18 17
11 12 12 12 11 12 12 13 13 12 13 13 14 14 14 14 14 15 15 16 16 17 17 17 18 20 21 20 21 22 23 25 24 25 25 25 24 22 23 24 26 25 23 19 17
11 11 11 12 11 11 12 12 12 12 12 13 13 14 13 14 15 16 16 15 16 16 16 17 19 20 21 21 20 21 22 23 24 22 22 22 24 23 24 26 24 24 23 20 18
10 11 11 12 12 11 11 12 12 12 12 13 13 14 12 13 16 16 15 15 16 16 15 16 18 19 20 20 19 20 21 21 21 21 21 20 22 23 23 25 23 22 21 21 20
10 10 10 11 12 11 11 11 12 12 12 12 13 13 13 14 15 16 15 13 14 14 14 14 15 15 16 18 19 21 21 21 19 20 20 20 22 20 23 24 23 22 22 22 21
9 10 10 10 11 11 11 11 12 12 12 12 12 12 11 15 14 15 15 14 14 14 15 15 14 14 15 15 16 18 20 20 20 19 20 20 20 20 23 22 23 23 23 22 21
9 9 10 10 11 11 11 11 11 12 12 12 11 11 12 13 14 15 14 14 13 14 14 13 14 14 15 14 14 15 19 20 22 19 20 20 21 24 23 23 23 24 25 22 21
9 9 9 9 10 11 11 11 11 11 11 11 11 12 13 12 12 13 14 15 13 13 12 13 13 14 13 15 15 15 16 20 21 19 19 19 21 22 24 23 23 24 25 25 23
8 9 10 9 9 10 11 11 11 10 10 10 11 12 12 13 12 12 13 14 14 13 13 13 14 14 14 15 15 17 17 19 20 20 18 19 20 21 22 21 22 24 25 24 23
7 8 9 9 9 10 10 9 9 9 9 10 11 12 11 12 13 13 13 14 14 13 13 14 14 14 16 16 17 17 18 19 20 19 19 20 20 20 22 22 22 23 23 23 23
7 7 8 9 10 9 10 10 11 12 9 9 11 11 10 12 12 13 13 15 13 13 14 13 14 17 17 15 15 15 16 17 19 18 18 20 19 21 21 21 22 22 23 23 23
7 7 8 9 9 8 9 10 11 11 9 9 10 12 12 12 12 12 13 15 14 15 14 14 17 17 17 16 14 15 16 15 18 18 18 18 19 21 22 22 22 22 23 24 24
7 7 8 8 8 9 9 10 11 13 10 8 10 11 11 12 12 13 13 15 14 14 15 15 17 17 14 14 15 15 16 16 16 16 16 18 19 22 23 22 21 21 22 22 24
7 7 7 8 9 8 9 10 12 13 9 11 10 12 12 12 12 11 13 13 14 15 14 15 16 14 15 15 15 14 16 16 17 17 16 16 15 20 22 21 22 23 23 23 23
7 7 7 8 8 9 8 10 10 8 9 8 10 9 10 11 11 11 12 14 15 14 15 16 16 16 16 14 14 15 14 14 14 14 15 17 17 20 22 23 23 23 24 23 23
7 7 7 8 8 7 8 8 7 9 8 8 9 10 11 11 11 12 11 11 13 11 13 15 15 16 16 15 14 14 15 14 14 14 16 20 18 19 23 23 23 23 24 23 24
7 7 7 7 8 7 8 7 9 7 9 10 10 10 10 12 11 11 11 11 13 14 14 13 13 15 16 16 16 15 17 16 16 17 19 16 18 21 22 23 23 22 22 22 21
6 6 6 6 7 7 6 8 10 9 9 10 10 9 10 11 12 12 12 12 13 13 13 13 14 15 16 16 17 17 14 18 17 10 16 20 20 20 20 20 20 21 22 21 21
6 6 7 6 6 7 7 9 7 9 11 11 10 11 9 10 11 12 11 13 13 13 15 15 14 16 15 15 15 16 16 13 13 15 15 19 20 22 20 21 21 22 23 23 21
6 6 6 7 5 7 8 6 7 11 12 12 11 11 11 10 11 11 12 13 14 13 14 14 14 14 15 15 15 13 13 13 14 13 17 19 21 24 24 23 22 21 21 22 21
3 6 5 5 6 6 7 7 9 9 10 9 10 11 10 11 10 11 11 13 14 14 13 14 12 12 14 13 15 16 15 15 14 13 14 18 19 20 21 21 23 21 19 19 19
5 6 6 7 8 7 6 8 9 9 10 10 10 10 11 11 10 11 11 13 12 13 13 13 12 11 12 12 12 13 16 16 13 13 16 16 19 22 23 20 19 19 20 19 17
4 6 5 5 5 6 7 8 7 7 8 8 9 11 11 11 10 10 10 11 12 12 12 13 13 13 13 15 12 12 13 15 15 13 14 16 19 21 22 20 22 21 19 18 17
5 5 3 5 6 8 7 8 8 8 8 9 9 11 11 9 9 10 11 11 11 12 12 10 10 11 13 13 13 12 12 11 13 15 14 17 18 20 21 22 22 22 21 18 18
6 6 5 5 7 9 8 8 6 5 8 9 10 10 11 10 11 9 11 11 12 11 13 12 11 12 10 12 13 12 13 13 14 11 13 17 17 20 21 22 21 21 21 21 21
3 4 8 7 8 9 7 5 7 8 7 8 10 9 10 10 10 11 10 10 10 11 11 11 10 10 11 12 12 11 12 13 14 15 13 12 15 18 19 19 20 20 20 20 21

GFSSW_925_temp_141.txt.gz
Temp
12 12 12 12 12 12 12 12 13 13 13 14 14 15 14 15 15 15 17 19 18 17 18 20 21 22 23 25 24 25 25 25 26 26 27 27 26 25 24 25 23 24 25 23 22
11 12 12 12 12 12 12 12 13 13 13 13 14 14 14 15 15 16 17 17 17 17 19 21 23 22 24 24 24 25 25 26 28 28 28 28 26 27 25 25 25 24 23 21 19
11 11 11 12 12 12 12 12 12 13 13 13 13 13 13 14 16 16 17 16 16 17 19 20 21 22 23 24 24 24 24 27 27 28 28 27 26 26 25 26 27 28 27 22 19
11 11 11 11 12 12 12 12 12 13 13 13 13 13 13 14 15 18 17 17 16 17 18 20 21 21 22 23 24 22 24 26 26 26 24 25 27 26 26 26 27 27 27 24 22
10 11 11 11 11 12 11 12 12 12 12 13 13 13 12 14 17 16 15 15 15 16 19 20 21 22 22 23 24 22 23 25 25 24 23 24 23 24 25 27 27 26 24 25 23
10 10 11 11 11 11 11 12 12 12 12 12 13 13 14 14 17 17 14 14 15 16 16 18 20 20 21 21 22 23 22 24 24 24 23 22 23 24 24 25 27 25 25 25 25
9 10 10 11 11 11 11 12 12 12 12 12 12 12 14 16 16 17 15 15 15 15 16 15 15 17 16 17 19 20 20 22 23 23 23 23 22 22 24 24 24 25 25 26 25
9 9 10 11 11 10 11 11 12 12 12 12 12 12 13 15 15 15 15 16 14 15 16 15 14 14 15 15 16 18 19 20 23 23 23 22 22 25 26 24 24 25 26 26 25
8 9 9 10 10 10 11 11 11 11 11 11 11 11 12 13 14 15 16 17 15 14 14 14 13 14 13 16 15 16 17 19 21 23 23 21 22 25 26 25 25 25 26 27 27
8 8 9 10 10 10 10 11 11 11 11 11 12 12 13 14 15 15 15 16 14 13 13 13 14 14 14 15 16 16 16 19 19 22 21 21 21 23 25 24 24 25 26 27 27
7 8 8 9 10 10 10 10 9 9 10 10 11 14 14 15 15 14 15 15 15 13 14 14 14 15 16 16 18 19 18 20 22 22 18 20 21 23 24 24 24 24 25 26 26
7 8 8 8 10 10 9 10 11 12 10 11 12 14 13 14 13 15 15 14 14 13 15 14 14 17 18 17 15 17 17 16 19 21 18 20 21 23 24 24 24 25 25 25 26
7 7 7 8 9 9 9 10 11 12 10 9 11 12 13 13 15 15 15 15 15 15 14 15 17 19 18 17 16 17 15 15 17 20 20 20 20 21 23 23 24 25 25 26 26
7 7 7 8 8 8 8 9 11 13 10 9 9 11 12 14 13 15 15 16 14 15 16 15 17 16 17 17 18 16 18 16 15 16 17 21 18 23 25 26 26 25 24 25 25
6 7 7 7 8 8 9 8 11 11 11 9 9 13 13 13 14 13 14 15 15 16 15 16 17 17 15 17 17 17 18 16 15 15 15 17 16 20 23 24 25 26 24 25 25
6 6 7 7 8 8 8 9 7 8 11 9 10 10 11 13 14 13 13 15 16 16 16 16 18 18 19 19 18 17 14 14 14 14 14 16 18 21 22 24 25 26 26 26 26
6 6 6 7 7 8 9 8 8 9 8 8 9 11 12 12 12 13 12 12 13 12 14 16 16 17 17 16 14 14 14 14 14 14 15 20 18 20 23 25 25 26 26 26 26
6 6 6 7 8 7 7 7 9 9 10 11 11 11 12 12 13 13 12 12 14 15 15 14 14 16 17 16 17 13 13 15 16 16 19 19 18 21 24 24 25 24 25 24 25
6 6 6 6 7 7 7 8 10 9 11 11 11 10 11 12 13 13 13 13 14 15 14 15 15 18 18 18 17 16 12 15 14 15 14 17 20 23 24 23 22 23 23 24 24
6 6 7 7 7 6 5 9 8 11 13 12 11 11 10 11 13 13 13 15 14 15 16 16 15 17 18 18 18 17 18 14 13 15 15 18 21 22 24 24 24 23 23 23 24
6 6 8 7 6 6 7 8 6 12 13 12 12 11 12 11 13 12 13 15 15 15 15 15 15 15 17 15 15 16 16 17 16 16 16 18 20 24 24 26 26 25 24 24 23
6 6 6 6 6 5 7 6 10 12 14 13 13 13 12 12 12 13 13 15 16 16 14 15 14 13 14 16 18 17 16 16 14 14 15 17 19 24 24 23 23 23 22 22 21
5 5 5 6 7 7 5 7 11 12 13 12 12 13 14 13 11 14 14 16 15 15 14 15 12 11 13 15 16 12 16 16 15 15 14 14 17 22 24 24 24 22 22 21 20
6 6 5 5 6 7 7 8 10 13 12 13 12 14 13 12 13 13 13 14 14 14 11 15 14 13 13 15 16 13 14 15 16 13 13 15 17 20 22 23 24 24 23 21 20
6 5 3 6 5 8 8 7 9 9 11 12 12 13 13 11 12 12 13 13 13 13 13 13 10 13 15 15 16 16 14 11 11 14 14 17 18 19 20 21 23 24 24 23 22
6 6 6 6 6 7 8 8 10 9 11 10 12 13 13 11 12 11 13 13 12 13 13 11 10 9 9 12 13 13 14 15 15 14 12 12 12 15 17 18 19 21 22 21 21
6 9 9 7 6 7 8 8 9 10 9 13 13 12 12 13 14 14 14 13 14 13 13 13 11 10 11 13 12 11 13 14 15 16 16 15 17 18 18 19 19 20 20 21 21

GFSSW_925_temp_144.txt.gz
Temp
12 12 12 12 12 12 12 12 12 13 13 14 14 15 14 15 15 15 16 19 19 19 19 20 21 22 23 23 24 25 22 23 24 25 27 25 25 25 24 25 23 24 23 23 20
11 12 12 12 12 12 12 12 12 13 13 13 14 14 14 14 14 15 17 18 18 18 18 20 22 23 22 23 24 23 22 24 26 27 26 27 25 24 24 24 24 22 20 21 19
12 11 12 12 12 12 12 12 12 12 13 13 13 13 13 14 15 17 18 17 17 18 18 20 21 22 21 22 23 23 21 24 26 27 25 24 25 26 25 23 26 25 21 20 19
11 12 11 11 12 12 12 12 12 12 12 13 13 13 13 14 16 17 18 17 17 17 18 19 21 20 21 21 23 21 23 24 24 25 24 23 24 24 24 24 25 25 23 21 18
10 11 12 11 11 11 12 12 12 12 12 12 13 13 12 14 17 17 17 17 16 16 18 19 20 20 20 22 22 22 23 23 24 24 24 23 22 22 22 24 24 25 24 22 21
10 10 11 12 11 11 11 12 12 12 12 12 12 13 13 14 17 17 17 15 16 17 18 19 19 20 20 21 21 21 21 22 22 23 23 22 21 22 23 24 23 23 23 23 22
10 10 10 11 11 11 11 11 12 12 12 12 12 12 13 15 16 17 16 15 15 16 17 17 17 19 19 19 18 20 19 20 21 22 22 22 20 21 22 22 23 22 23 23 23
9 9 10 11 11 11 11 11 12 12 12 12 12 12 13 15 15 16 16 16 15 15 16 16 15 14 15 15 17 17 18 18 21 22 22 21 19 22 22 22 22 22 23 23 23
9 9 10 10 10 11 11 11 11 11 11 11 11 12 13 15 15 15 16 17 15 15 14 14 15 15 14 14 15 15 16 18 19 22 22 21 19 22 23 22 22 22 22 23 24
8 9 9 10 10 11 11 11 11 11 11 11 12 11 12 14 15 15 16 16 15 13 13 13 13 14 14 15 16 16 15 17 18 20 20 20 20 21 21 21 21 21 22 23 23
8 8 9 9 10 10 10 9 9 9 10 11 12 12 16 15 15 15 16 16 14 13 14 14 14 15 15 16 17 15 16 17 19 20 20 19 19 20 21 21 22 22 22 22 23
8 8 8 9 9 10 9 9 11 12 10 12 13 13 15 15 14 15 16 14 14 13 14 13 13 16 17 16 16 15 15 16 18 18 18 18 19 20 20 21 22 22 22 23 23
7 7 8 8 9 9 8 10 12 12 10 10 12 13 14 15 15 14 15 15 14 14 14 14 16 17 16 16 16 15 15 15 16 17 18 18 18 18 20 21 22 23 23 23 23
7 7 7 8 8 8 8 9 10 12 9 9 9 12 13 14 13 16 15 15 14 14 15 14 16 16 16 16 16 15 17 17 17 15 15 18 16 17 20 21 21 22 22 23 23
7 7 7 7 9 8 9 9 9 9 11 9 11 13 13 13 14 14 16 14 13 14 14 14 15 15 15 16 17 16 17 17 17 16 14 16 15 18 21 20 21 22 21 23 23
6 7 7 7 8 9 9 9 8 9 10 9 10 10 11 12 14 14 14 14 15 14 14 14 16 17 16 16 16 17 15 15 14 14 14 15 15 17 18 19 21 22 23 22 22
6 7 7 7 7 8 8 8 9 9 6 9 10 10 11 11 12 12 12 11 12 12 12 14 15 16 17 15 16 16 15 13 13 13 14 17 16 16 19 20 21 21 21 21 22
6 6 7 7 7 8 8 7 9 9 9 8 11 11 11 12 11 12 12 11 13 14 13 12 12 15 16 15 15 14 14 14 13 15 14 15 15 17 19 21 21 22 21 20 20
6 6 6 6 7 8 7 8 9 10 9 9 11 10 10 11 12 12 12 12 13 14 13 13 13 17 16 16 16 15 13 15 14 13 13 15 16 18 19 20 20 20 20 20 20
5 4 6 6 7 7 6 8 8 10 11 11 10 11 10 10 12 11 11 13 13 14 15 15 14 16 16 16 15 15 14 13 12 13 13 14 14 17 19 20 21 20 19 19 19
6 5 7 6 6 6 7 7 7 11 13 11 11 10 12 11 12 11 12 14 14 14 14 14 14 15 15 15 15 14 14 14 14 11 13 13 15 19 20 21 20 19 19 19 20
5 5 7 6 6 5 6 6 7 8 13 13 12 12 12 12 12 11 12 14 15 15 13 14 13 11 13 15 16 16 15 15 13 13 13 14 14 19 20 21 20 20 21 21 20
3 5 6 7 6 6 5 6 7 7 12 12 12 13 13 12 11 12 13 15 15 14 13 13 11 10 11 13 14 12 14 14 14 14 13 13 15 18 18 18 19 19 20 19 19
3 6 5 5 4 6 7 7 7 9 12 13 13 13 13 12 13 12 13 14 14 15 13 14 13 11 11 13 14 13 13 13 13 12 13 13 14 16 17 17 19 18 18 18 17
2 5 4 5 5 6 7 8 8 8 10 12 12 12 12 11 11 12 13 13 13 13 13 12 8 12 13 13 14 14 13 11 12 13 12 14 14 16 16 14 14 15 17 18 18
5 5 4 6 7 6 7 8 9 7 9 11 12 12 13 11 11 11 13 13 12 12 12 11 8 10 7 11 11 12 12 13 13 12 10 11 12 14 15 15 15 16 17 18 18
7 6 7 6 6 7 8 8 9 10 11 12 13 12 11 12 13 13 14 13 12 12 11 10 8 8 8 10 11 9 11 12 13 13 14 13 14 16 16 15 16 16 17 17 17

GFSSW_925_temp_147.txt.gz
Temp
12 12 12 12 12 12 12 12 12 12 13 13 13 14 14 14 15 14 16 17 18 19 19 20 21 21 22 21 23 22 18 19 21 23 24 23 23 24 22 22 23 22 21 21 20
12 12 12 12 12 12 12 12 12 12 12 13 13 13 14 14 14 14 15 17 18 18 19 19 19 20 19 21 21 19 17 20 22 23 23 24 24 22 23 23 23 22 20 18 19
11 12 12 12 12 12 12 12 12 12 12 12 13 13 13 14 14 16 17 16 17 18 18 19 19 20 20 20 20 21 19 21 22 22 22 22 23 24 23 23 22 22 19 17 17
11 11 12 12 12 12 12 12 12 12 12 12 13 13 13 13 14 17 17 18 18 17 18 19 19 18 19 19 21 20 21 21 21 22 22 22 21 21 23 22 23 23 20 18 16
10 11 11 12 12 11 12 12 12 12 12 12 12 13 12 13 15 17 17 17 16 16 17 17 17 18 17 19 19 19 20 21 21 21 21 22 21 21 20 20 21 22 19 18 17
10 10 11 11 12 12 11 12 12 12 12 12 12 12 12 13 16 16 16 17 16 16 16 17 17 18 18 18 18 18 18 19 20 19 20 20 20 21 21 21 20 22 20 18 18
10 10 10 11 11 12 12 11 12 12 12 12 12 12 12 14 16 16 16 16 16 16 16 16 17 18 17 18 16 17 18 17 19 19 19 21 19 19 19 19 20 19 20 20 19
10 10 10 10 11 11 12 11 11 12 12 12 12 11 12 14 15 15 15 16 16 16 16 15 16 14 15 15 16 16 16 16 19 19 19 20 19 19 19 18 19 18 18 19 20
9 9 10 10 10 11 11 11 11 11 11 11 11 11 12 14 14 15 15 16 15 15 15 15 15 14 14 15 15 15 15 15 16 18 18 18 19 19 19 19 18 17 17 19 19
9 9 9 10 10 10 11 11 11 10 10 11 11 10 11 12 15 15 15 16 14 13 13 13 13 14 14 15 16 16 15 16 16 18 18 17 18 18 19 19 20 18 17 17 18
8 9 9 9 10 10 10 9 9 9 10 10 10 11 13 14 15 15 15 15 13 12 13 13 13 14 14 16 16 16 16 16 17 17 18 17 18 18 18 17 17 18 18 20 18
8 8 9 9 9 10 10 10 11 11 10 10 11 11 13 15 13 13 15 13 13 13 14 13 14 15 16 15 14 15 15 15 16 16 16 16 16 17 18 18 19 19 19 19 20
8 8 8 9 9 9 9 10 11 12 10 10 11 11 12 14 13 13 13 12 13 13 13 14 15 15 15 14 14 14 15 15 15 15 16 15 14 16 18 18 20 20 20 21 20
7 8 8 8 8 8 8 10 10 10 9 9 10 11 11 13 12 14 14 13 12 12 12 12 14 14 14 14 15 14 14 15 14 14 14 15 14 16 17 17 19 19 19 20 21
7 7 8 8 8 8 9 9 10 8 10 10 10 13 12 12 12 12 14 11 12 12 12 13 12 13 13 14 14 14 15 15 14 15 14 14 14 15 16 16 18 17 17 18 20
7 7 7 7 8 8 9 9 9 9 9 9 11 10 11 12 13 12 12 12 12 11 12 13 14 13 14 15 14 14 15 14 14 13 14 14 13 16 17 17 18 18 19 20 19
6 7 7 7 7 9 9 8 8 9 8 9 10 11 11 11 12 11 11 11 12 11 12 12 12 14 15 13 13 12 13 13 13 13 14 14 13 16 17 18 17 18 18 19 17
7 7 7 7 7 8 8 7 8 9 8 7 10 11 10 11 11 11 11 12 12 11 12 11 10 13 14 14 13 12 13 14 13 13 13 12 13 15 17 18 18 18 19 19 19
6 6 6 6 7 8 7 8 8 6 8 9 10 10 10 11 11 11 12 11 11 11 12 11 11 14 14 14 14 13 13 14 13 12 10 13 14 16 17 17 17 17 17 17 18
5 5 5 6 7 7 6 8 6 9 10 10 10 9 10 10 11 11 11 12 11 12 13 13 12 14 13 14 13 14 13 12 12 10 12 12 12 15 17 18 17 18 18 17 17
5 4 5 6 6 6 7 7 5 9 10 11 9 10 10 10 11 11 10 12 12 12 12 13 12 13 13 13 13 12 13 13 13 11 13 13 12 15 17 17 17 16 17 17 17
4 4 5 6 5 5 6 6 8 7 9 10 10 11 10 10 11 11 10 12 13 13 12 12 11 9 11 13 14 14 13 13 12 11 10 12 14 16 16 17 17 15 16 15 15
3 4 5 6 6 6 5 6 7 8 7 8 10 11 11 11 11 11 11 13 13 13 12 12 10 5 8 11 13 12 13 14 13 12 12 11 13 16 15 15 16 15 14 14 14
3 2 5 5 4 4 6 5 6 7 9 7 10 11 11 11 12 10 12 12 12 13 12 14 10 10 11 11 12 11 12 12 12 11 12 12 13 15 15 14 14 13 14 15 16
2 3 3 5 5 6 6 7 7 7 8 8 8 12 12 10 11 11 12 11 11 12 12 12 8 10 11 11 11 12 12 11 11 12 11 13 13 14 15 13 14 15 15 15 15
3 4 4 5 5 6 6 6 7 6 7 7 7 12 12 11 12 10 12 11 12 11 12 10 8 9 7 11 11 10 11 10 11 11 10 11 10 13 14 13 13 13 11 9 9
5 5 5 6 4 5 7 7 8 9 6 8 9 11 11 12 11 13 13 12 11 12 10 10 7 7 4 9 9 6 9 11 12 11 11 11 13 14 11 10 8 6 6 7 7